This demonstration page uses our WeatherBlox Daily Observations layout. Learn more.

Left ArrowRight Arrow

38.88101, -77.10428

Hourly Observations for March 29, 2019

Temp ( °F °C ) Dew Point ( °F °C ) Humidity (%) Winds ( mph kmh ) Pressure ( in mb ) Visibility ( mi km ) Precip ( " mm )
12:52 am 00:52 Mostly Cloudy 53 11.7 41 5 64 64 S 10 17 30.18 1022 10 16.0934 0 0
1:52 am 01:52 Mostly Cloudy 54 12.2 39 3.9 57 57 S 9 15 30.17 1022 10 16.0934 0 0
2:52 am 02:52 Mostly Cloudy 53 11.7 40 4.4 61 61 S 10 17 30.16 1021 10 16.0934 0 0
3:52 am 03:52 Mostly Cloudy 52 11.1 41 5 66 66 S 9 15 30.14 1021 10 16.0934 0 0
4:52 am 04:52 Cloudy 52 11.1 41 5 66 66 S 9 15 30.11 1020 10 16.0934 0 0
5:52 am 05:52 Mostly Cloudy 52 11.1 40 4.4 64 64 S 8 13 30.12 1020 10 16.0934 0 0
6:52 am 06:52 Mostly Cloudy 52 11.1 41 5 66 66 S 7 11 30.12 1020 10 16.0934 0 0
7:52 am 07:52 Cloudy 53 11.7 41 5 64 64 S 7 11 30.13 1020 10 16.0934 0 0
8:52 am 08:52 Cloudy 54 12.2 41 5 62 62 S 7 11 30.12 1020 10 16.0934 0 0
9:52 am 09:52 Cloudy 56 13.3 41 5 57 57 S 6 9 30.13 1020 10 16.0934 0 0
10:52 am 10:52 Cloudy 58 14.4 40 4.4 51 51 S 6 9 30.14 1021 10 16.0934 0 0
11:52 am 11:52 Cloudy 59 15 41 5 51 51 S 6 9 30.13 1020 10 16.0934 0 0
12:52 pm 12:52 Cloudy 63 17.2 41 5 45 45 ENE 3 6 30.12 1020 10 16.0934 0 0
1:52 pm 13:52 Cloudy 69 20.6 40 4.4 35 35 NNW 8 13 30.11 1020 10 16.0934 0 0
2:52 pm 14:52 Cloudy 69 20.6 41 5 36 36 Calm 30.09 1019 10 16.0934 0 0
3:52 pm 15:52 Cloudy 68 20 42 5.6 39 39 SW 5 7 30.08 1019 10 16.0934 0 0
4:52 pm 16:52 Cloudy 70 21.1 41 5 35 35 Calm 30.08 1019 10 16.0934 0 0
5:52 pm 17:52 Cloudy 66 18.9 43 6.1 43 43 ESE 6 9 30.08 1019 10 16.0934 0 0
6:52 pm 18:52 Cloudy 63 17.2 43 6.1 48 48 SE 12 19 30.08 1019 10 16.0934 0 0
7:52 pm 19:52 Cloudy 62 16.7 43 6.1 50 50 SE 6 9 30.09 1019 10 16.0934 0 0
8:52 pm 20:52 Cloudy 62 16.7 42 5.6 48 48 Calm 30.09 1019 10 16.0934 0 0
9:52 pm 21:52 Cloudy 62 16.7 42 5.6 48 48 Calm 30.1 1019 10 16.0934 0 0
10:52 pm 22:52 Mostly Cloudy 61 16.1 43 6.1 52 52 NE 3 6 30.09 1019 10 16.0934 0 0
11:52 pm 23:52 Mostly Cloudy 59 15 43 6.1 56 56 NE 5 7 30.08 1019 10 16.0934 0 0

Powered by AerisWeather